This is the latest recevied weather packets stored in our database for station/object KC8BSD. If no packets are shown the sender has not sent any weather packets the latest 10 day(s).
| Time | Temp. | Humidity | Pressure | Rain* | Wind** | Luminosity | Snow |
|---|---|---|---|---|---|---|---|
| 1777747115 | 9.44° C | 45% | 1018.6 hPa | 0 mm | - | 275 W/m² | - |
| 1777746812 | 8.89° C | 45% | 1018.6 hPa | 0 mm | - | 379 W/m² | - |
| 1777746507 | 8.89° C | 46% | 1018.6 hPa | 0 mm | - | 294 W/m² | - |
| 1777746202 | 10° C | 43% | 1018.7 hPa | 0 mm | - | 299 W/m² | - |
| 1777745899 | 11.11° C | 43% | 1018.6 hPa | 0 mm | - | 970 W/m² | - |
| 1777745598 | 10° C | 43% | 1018.6 hPa | 0 mm | - | 837 W/m² | - |
| 1777745296 | 8.89° C | 43% | 1018.9 hPa | 0 mm | - | 723 W/m² | - |
| 1777744993 | 9.44° C | 45% | 1018.7 hPa | 0 mm | - | 460 W/m² | - |
| 1777744689 | 9.44° C | 46% | 1019 hPa | 0 mm | - | 312 W/m² | - |
| 1777744382 | 10° C | 43% | 1018.8 hPa | 0 mm | - | 505 W/m² | - |
| 1777744079 | 8.89° C | 46% | 1018.9 hPa | 0 mm | - | 746 W/m² | - |
| 1777743771 | 8.33° C | 49% | 1019 hPa | 0 mm | - | 244 W/m² | - |
| 1777743468 | 8.33° C | 45% | 1018.9 hPa | 0 mm | - | 238 W/m² | - |
| 1777743165 | 8.33° C | 47% | 1018.9 hPa | 0 mm | - | 291 W/m² | - |
| 1777742863 | 8.33° C | 45% | 1019.1 hPa | 0 mm | - | 311 W/m² | - |
| 1777742559 | 7.78° C | 46% | 1019 hPa | 0 mm | - | 353 W/m² | - |
| 1777742255 | 7.78° C | 48% | 1019.2 hPa | 0 mm | - | 272 W/m² | - |
| 1777741952 | 7.78° C | 48% | 1019.1 hPa | 0 mm | - | 225 W/m² | - |
| 1777741649 | 8.33° C | 44% | 1019 hPa | 0 mm | - | 225 W/m² | - |
| 1777741346 | 8.89° C | 47% | 1019 hPa | 0 mm | - | 324 W/m² | - |
| 1777741042 | 8.89° C | 43% | 1019.3 hPa | 0 mm | - | 483 W/m² | - |
| 1777740739 | 7.78° C | 46% | 1019.3 hPa | 0 mm | - | 322 W/m² | - |
| 1777740435 | 7.78° C | 48% | 1019.1 hPa | 0 mm | - | 273 W/m² | - |
| 1777740133 | 7.78° C | 45% | 1019.3 hPa | 0 mm | - | 246 W/m² | - |
| 1777739828 | 7.78° C | 47% | 1019.4 hPa | 0 mm | - | 268 W/m² | - |
* Rain latest hour (hover to see other rain measurements)
** Current wind speed in m/s (hover to see current wind gust speed)